Regional Weather Roundup
Issued by NWS

Home | Current Version | Previous Version | Text Only | Print | Product List | Glossary Off
Versions: 1 2 3 4 5 6 7 8 9 10 11 12 13 14 15 16 17 18 19 20 21 22 23 24 25 26 27

000
ASUS45 KCYS 040210
RWRWY

WYOMING REGIONAL WEATHER ROUNDUP
NATIONAL WEATHER SERVICE CHEYENNE WY
700 PM MST SAT DEC 03 2016

NOTE:  "FAIR" INDICATES FEW OR NO CLOUDS BELOW 12,000 FEET
WITH NO SIGNIFICANT WEATHER AND/OR OBSTRUCTIONS TO VISIBILITY.

WYZ001-040300-
YELLOWSTONE NATIONAL PARK

CITY           SKY/WX    TMP DP  RH WIND       PRES   REMARKS
LK YELLOWSTONE   N/A     16  13  88 CALM      30.05S
W YELLOWSTONE  NOT AVBL

$$
WYZ002>013-054>058-071-098>099-040300-
NORTHERN WYOMING

CITY           SKY/WX    TMP DP  RH WIND       PRES   REMARKS
JACKSON        CLOUDY    25  21  86 S8        30.11R WCI  16
CODY           FAIR      32  11  41 W10G20    29.97S WCI  24
GREYBULL       MOCLDY    31  16  54 SE5       29.98F WCI  26
WORLAND        FAIR      23  16  74 CALM      29.99S
SHERIDAN       FAIR      30  16  56 CALM      29.93S
BUFFALO        MOCLDY    34   9  35 VRB6      29.94R WCI  29
GILLETTE       CLOUDY    33  21  61 W9        29.94R WCI  25
HULETT         CLOUDY    34  27  75 SW8       29.92R WCI  27
NEWCASTLE      FAIR      23  21  93 CALM      29.95R

$$
WYZ014>020-022>026-101>103-040300-
CENTRAL WYOMING

CITY           SKY/WX    TMP DP  RH WIND       PRES   REMARKS
BIG PINEY      FAIR      15  10  80 VRB6      30.11R WCI   6
PINEDALE       FAIR      14  10  85 W12       30.09F WCI   0
DUBOIS         CLOUDY    21  10  63 N5        30.01S WCI  15
LANDER         FAIR      26  10  50 CALM      30.00F
RIVERTON       FAIR      30  10  43 NW24      30.00R WCI  16
CASPER         MOCLDY    28  14  55 SW14      29.99R WCI  17
DOUGLAS        FAIR      30  15  53 W9        29.98R WCI  22

$$
WYZ021-027>030-104>119-040300-
SOUTHERN WYOMING

CITY           SKY/WX    TMP DP  RH WIND       PRES   REMARKS
EVANSTON       CLOUDY    23  13  65 SW10      30.18S WCI  12
FORT BRIDGER   CLOUDY    24  18  77 W17       30.18R WCI  11
ROCK SPRINGS   FAIR      21  15  78 W21       30.11F WCI   5
DIXON          CLOUDY    26  16  64 SW9       30.17R WCI  17
RAWLINS        FAIR      22  15  75 W21G28    30.07R WCI   6
SARATOGA       CLOUDY    23  18  80 SW15G22   30.07S WCI  10
LARAMIE        CLOUDY    22   7  52 MISG      30.01R
CHEYENNE       MOCLDY    26  10  50 W13       30.00R WCI  15
TORRINGTON     MOCLDY    33  13  43 W9        29.99S WCI  25
PINE BLUFFS    FAIR      30  12  47 NW21G30   30.02R WCI  17

$$




USA.gov is the U.S. government's official web portal to all federal, state and local government web resources and services.